[Iaude] MPEC U284: 2023 UF10 [a=1.51,e=0.24,i=6.5,H=23.8]
    mpec at marsden.cfa.harvard.edu 
    mpec at marsden.cfa.harvard.edu
       
    Mon Oct 30 15:27:58 EDT 2023
    
    
  
M.P.E.C. 2023-U284                             Issued 2023 October 30, 19:26 UT
     The Minor Planet Electronic Circulars contain information on unusual
         minor planets, routine data on comets and natural satellites,
         and occasional editorial announcements.  They are published
    on behalf of Division F of the International Astronomical Union by the
          Minor Planet Center, Smithsonian Astrophysical Observatory,
                          Cambridge, MA 02138, U.S.A.
			  
             Prepared using the Tamkin Foundation Computer Network
                              MPC at CFA.HARVARD.EDU
            URL https://www.minorplanetcenter.net/    ISSN 1523-6714
                                   2023 UF10                                    
Observations:
     K23U10F* C2023 10 18.22399522 20 22.704+16 10 11.82         22.37wXEU284F52
     K23U10F  C2023 10 18.24572922 20 26.728+16 09 49.59         21.51wXEU284F52
     K23U10F  C2023 10 18.25664722 20 28.739+16 09 38.34         22.30wXEU284F52
     K23U10F  C2023 10 18.36494822 20 48.684+16 07 43.97         22.37GVEU284F51
     K23U10F  C2023 10 18.36886022 20 48.387+16 07 25.21         22.5 GVEU284H01
     K23U10F KC2023 10 18.37316422 20 49.207+16 07 20.51         22.2 GVEU284H01
     K23U10F KC2023 10 18.38499322 20 51.564+16 07 07.19         21.9 GVEU284H01
     K23U10F KC2023 10 19.11846122 23 21.130+15 54 28.70         22.37GVEU284I52
     K23U10F KC2023 10 19.13091922 23 23.400+15 54 16.30         23.02GVEU284I52
     K23U10F KC2023 10 19.14336422 23 25.740+15 54 02.80               VEU284I52
     K23U10F  C2023 10 19.16879122 23 30.358+15 53 35.89         22.4 GVEU284H01
     K23U10F  C2023 10 19.17341122 23 31.218+15 53 30.84         22.1 GVEU284H01
     K23U10F  C2023 10 19.18583922 23 33.544+15 53 17.76         22.0 GVEU284H01
     K23U10F  C2023 10 19.19465522 23 35.205+15 53 08.75         22.7 GVEU284H01
Observer details:
F51 Pan-STARRS 1, Haleakala.  Observers J. Bulger, T. Lowe, P. Minguez, A.
    Schultz, I. Smith.  Measurers K. Chambers, T. de Boer, J. Fairlamb, H.
    Gao, M. Huber, C.-C. Lin, E. Magnier, Y. Ramanjooloo, R. Wainscoat, R.
    Weryk.  1.8-m Ritchey-Chretien + CCD.
F52 Pan-STARRS 2, Haleakala.  Observers J. Bulger, T. Lowe, P. Minguez, A.
    Schultz, I. Smith.  Measurers K. Chambers, T. de Boer, J. Fairlamb, H.
    Gao, M. Huber, C.-C. Lin, E. Magnier, Y. Ramanjooloo, R. Wainscoat, R.
    Weryk.  1.8-m Ritchey-Chretien + CCD.
H01 Magdalena Ridge Observatory, Socorro.  Observers W. H. Ryan, E. V. Ryan.
    Measurer W. H. Ryan.  2.4-m f/8.9 Ritchey-Chretien + CCD.
I52 Steward Observatory, Mt. Lemmon Station.  Observer G. J. Leonard.
    Measurers E. C. Beshore, D. Fay, J. B. Fazekas, D. C. Fuls, A. R. Gibbs,
    A. D. Grauer, H. Groeller, J. K. Hogan, R. A. Kowalski, S. M. Larson, G.
    J. Leonard, D. Rankin, R. L. Seaman, F. C. Shelly, K. W. Wierzchos.  1.0-m
    prime focus + CCD.
Orbital elements:
2023 UF10                                                Earth MOID = 0.1809 AU
Epoch 2023 Sept. 13.0 TT = JDT 2460200.5                Bell                    
M 353.96924              (2000.0)            P               Q                  
n   0.53131571     Peri.  112.88874     +0.99270401     +0.06658435             
a   1.5097358      Node   243.42001     -0.09786219     +0.93195727             
e   0.2393215      Incl.    6.45397     +0.07043968     +0.35640171             
P   1.86           H   23.85          G   0.15           U   9                  
Residuals in seconds of arc
231018 F52  0.2-  0.1+    231018 H01  0.3-  0.1+    231019 H01  0.1-  0.1+
231018 F52  0.0   0.1+    231018 H01  0.0   0.2-    231019 H01  0.1-  0.1-
231018 F52  0.0   0.1+    231019 I52  0.1+  0.2-    231019 H01  0.0   0.1-
231018 F51  0.2+  0.0     231019 I52  0.7-  0.2+    231019 H01  0.2+  0.2+
231018 H01  0.1+  0.0     231019 I52  0.4-  0.4-
Ephemeris:
2023 UF10                a,e,i = 1.51, 0.24, 6                   q = 1.1484
Date    TT    R. A. (2000) Decl.     Delta      r    Elong.  Phase     V
2023 09 30    21 25 08.7 +21 09 36   0.2027  1.1493   132.9    39.7    22.3
...
2023 10 15    22 09 45.3 +17 06 47   0.2201  1.1597   133.4    38.7    22.4
...
2023 10 23    22 36 24.3 +14 48 10   0.2363  1.1700   133.3    38.2    22.6
...
2023 10 29    22 56 47.3 +13 11 34   0.2522  1.1796   132.9    38.1    22.7
2023 10 30    23 00 10.9 +12 56 27   0.2551  1.1814   132.7    38.1    22.8
2023 10 31    23 03 34.0 +12 41 39   0.2582  1.1832   132.6    38.1    22.8
...
2023 11 06    23 23 41.0 +11 20 18   0.2785  1.1949   131.7    38.3    23.0
...
2023 11 14    23 49 44.1 +09 54 51   0.3112  1.2127   129.9    38.8    23.3
...
2023 11 29    00 35 32.6 +08 31 08   0.3890  1.2520   125.2    40.1    23.9
M. P. C. Staff               (C) Copyright 2023 MPC           M.P.E.C. 2023-U284
    
    
More information about the Iaude
mailing list